SCP
0 0 0 0 0 0 0 0 0 0 0 0 0 0 -0 -0 0 0 -0 -0 -0 -0 -0 -0 -0 0 0 0 0 0 -0 -0 -0
0 0 0 0 0 0 0 0 0 0 0 0 0 0 -0 0 0 0 -0 0 -0 -0 -0 -0 0 0 0 0 -0 -0 -0 -0 -0
0 0 0 -0 0 0 0 0 0 0 0 0 0 0 0 -0 -0 -0 0 0 -0 -0 -0 0 0 0 0 0 0 0 0 -0 -0
0 0 0 0 0 0 0 0 0 0 0 0 0 -0 -0 0 0 0 0 0 0 0 0 0 0 0 0 0 0 -0 0 0 0
0 0 0 0 0 0 0 0 0 0 0 0 0 0 -0 -0 0 0 0 0 -0 0 0 0 0 0 0 0 0 -0 -0 0 -0
0 0 0 0 0 0 0 0 -0 0 0 0 0 0 0 0 0 0 0 0 0 0 0 0 0 0 0 0 0 -0 -0 0 0
0 0 0 0 0 0 0 0 0 0 0 0 0 0 0 0 0 0 0 -0 0 0 0 0 0 0 0 0 -0 -0 0 0 0
0 0 0 0 0 0 0 0 0 0 0 0 0 0 0 0 0 0 0 0 0 0 0 0 0 0 0 0 0 0 0 0 0
0 0 0 0 0 0 0 0 0 0 0 0 0 0 0 0 -0 -0 0 0 0 0 0 0 0 0 0 0 0 0 0 0 0
0 0 0 0 0 0 0 0 0 0 0 0 0 0 0 0 0 0 -0 0 0 0 0 0 0 0 0 0 0 0 0 0 0
0 0 0 0 0 0 0 0 0 0 0 0 0 0 0 0 0 0 0 0 0 0 0 0 0 0 0 0 0 0 0 0 0
0 0 0 0 0 0 0 0 0 0 0 0 0 0 0 0 0 0 0 0 0 0 0 0 0 0 0 0 0 0 0 0 0
0 0 0 0 0 0 0 0 0 0 0 0 0 0 0 0 0 0 0 0 0 0 0 0 0 0 0 0 0 0 0 0 0
0 0 0 0 0 0 0 0 0 0 0 0 0 0 0 0 0 0 0 0 0 0 0 0 0 0 0 0 0 0 0 0 0
0 0 0 0 0 0 0 0 0 0 0 0 0 0 0 0 0 0 0 0 0 0 0 0 0 0 0 0 0 0 0 0 0
0 0 0 0 0 0 0 0 0 0 0 0 0 0 0 0 0 0 0 0 0 0 0 0 0 0 0 0 0 0 0 0 0
0 0 0 0 0 0 0 0 0 0 0 0 0 0 0 0 0 0 0 0 0 0 0 0 0 0 0 0 0 0 0 0 0
0 0 0 0 0 0 0 0 0 0 0 0 0 0 0 0 0 0 0 0 0 0 0 0 0 0 0 0 0 0 0 0 0
0 0 0 0 0 0 0 0 0 0 0 0 0 0 0 0 0 0 0 0 0 0 0 0 0 0 0 0 0 0 0 0 0
0 0 0 0 0 0 0 0 0 0 0 0 0 0 0 0 0 0 0 0 0 0 0 0 0 0 0 0 0 0 0 0 0
Wind_Speed_500mb
47 40 25 40 56 74 71 65 61 52 47 43 54 59 48 38 34 32 25 27 31 25 23 27 31 24 21 24 32 31 36 34 35
41 45 50 36 42 56 67 66 68 57 46 41 51 60 52 43 40 36 29 25 27 28 24 22 25 27 21 24 31 29 33 30 29
39 41 37 37 44 61 62 54 47 53 55 45 48 56 57 52 43 40 37 29 31 30 25 24 25 27 24 28 29 31 32 33 33
37 38 41 36 36 46 47 52 28 24 39 54 52 55 60 57 51 43 37 36 36 35 31 29 28 26 28 31 32 27 27 26 34
31 21 21 15 19 27 41 33 36 27 10 39 51 45 57 55 52 49 44 41 43 37 37 35 33 28 28 31 29 29 23 24 30
47 43 33 24 24 21 21 38 21 35 46 29 38 37 46 50 52 54 51 48 46 46 41 37 39 36 32 28 34 28 26 23 22
43 47 46 42 40 31 20 18 30 37 43 54 50 31 42 48 43 48 50 54 50 54 48 46 46 43 40 40 38 40 35 32 31
46 53 54 46 47 43 35 32 24 22 25 34 43 30 30 48 43 36 40 53 52 47 49 52 48 49 48 46 45 48 45 43 41
53 52 56 52 48 41 44 42 28 25 20 20 22 44 41 38 21 31 45 42 48 44 40 44 50 52 51 48 48 49 49 50 50
58 59 55 46 45 44 41 35 37 37 33 29 21 18 17 23 34 33 26 28 46 37 38 44 49 53 53 53 49 46 48 48 51
57 52 51 43 39 36 35 36 30 30 28 27 27 25 23 22 18 21 26 20 30 38 40 36 37 42 51 55 55 52 51 50 52
52 45 41 39 34 28 27 24 26 22 20 19 22 23 21 17 15 14 14 12 14 25 29 32 42 49 51 59 57 52 51 51 52
50 42 34 37 31 26 20 18 14 16 16 12 11 12 12 14 11 9 8 5 1 4 9 12 19 25 24 26 33 38 44 45 49
45 41 32 25 21 16 14 9 9 11 11 12 11 10 11 10 8 7 2 2 2 3 4 3 5 8 11 22 27 31 37 44 53
39 30 25 17 15 13 11 11 16 16 14 12 16 20 20 19 18 15 12 10 6 1 6 6 5 3 3 13 14 14 21 30 41
25 23 21 15 10 8 4 6 7 9 11 10 10 13 18 24 25 21 20 19 16 11 7 10 15 17 20 19 19 17 18 17 18
19 11 7 6 9 10 7 4 6 6 7 7 5 4 6 11 18 20 21 20 20 18 16 14 17 21 25 29 28 26 27 28 30
22 15 9 8 9 11 8 5 4 1 7 9 8 6 5 5 8 14 20 21 22 20 16 21 23 22 26 31 35 31 33 35 36
20 14 10 10 8 7 7 5 3 1 6 11 14 15 14 12 8 10 15 21 26 32 35 33 29 27 31 35 32 34 34 38 38
15 12 13 9 7 6 5 3 4 5 11 16 18 18 18 19 21 22 22 23 27 32 31 42 54 56 52 45 47 45 44 43 42
Wind_Direction_500mb
178 183 163 196 192 198 199 203 208 211 214 211 202 204 210 211 215 211 218 201 204 208 207 202 202 208 204 198 205 219 214 214 210
180 167 184 179 183 188 191 197 207 212 221 211 206 206 209 213 216 213 205 205 203 194 193 194 211 226 229 211 208 215 221 217 219
144 140 145 155 160 168 170 179 198 213 224 222 213 214 213 212 218 217 209 200 202 208 207 219 232 236 241 233 211 220 225 230 227
153 128 130 138 142 162 175 181 175 188 227 226 225 220 218 221 221 226 221 214 214 222 227 238 236 238 247 238 214 213 220 222 224
129 112 154 160 158 164 193 205 230 237 202 218 222 229 232 223 228 225 228 229 222 228 230 234 236 236 237 233 226 210 209 224 222
98 102 106 131 120 145 174 180 165 235 242 238 214 218 232 234 233 228 233 232 228 231 229 233 240 239 234 233 234 229 222 222 235
106 100 100 100 93 98 133 176 212 230 236 230 235 262 246 232 230 239 235 234 234 235 238 239 243 248 248 246 244 237 239 235 237
97 102 99 99 98 98 110 129 170 190 204 208 222 223 222 224 260 252 239 235 229 232 236 241 248 249 248 249 246 244 247 245 247
106 108 103 106 101 107 94 94 105 125 173 186 211 179 209 203 227 209 252 252 224 228 234 238 239 242 248 248 248 249 250 253 256
122 110 106 103 97 93 93 94 90 93 101 124 141 171 206 229 217 220 216 235 224 243 246 244 241 240 241 242 245 251 255 253 255
120 114 111 106 103 105 109 102 104 98 105 115 123 122 112 112 148 208 233 234 229 245 260 256 250 251 252 249 244 242 244 246 252
123 122 117 113 119 121 122 128 129 137 132 128 131 124 121 118 115 121 148 177 207 246 260 252 260 258 256 249 246 248 251 254 253
130 132 132 127 132 132 148 149 177 182 161 158 144 132 132 137 146 147 140 132 147 290 286 286 272 258 275 280 269 256 256 259 261
140 136 143 150 152 154 141 165 214 228 215 222 216 206 207 205 198 189 174 104 65 352 336 275 314 296 264 277 280 270 273 267 262
138 139 150 170 176 186 197 225 246 257 268 274 270 260 251 247 248 249 244 243 258 322 326 292 317 4 334 346 348 330 292 277 272
150 153 156 170 194 196 239 263 276 262 269 305 302 263 250 245 245 249 259 263 262 255 262 318 308 297 297 298 304 318 323 321 306
158 171 189 214 227 235 231 290 307 314 306 319 348 317 260 255 248 244 249 254 266 273 276 273 278 286 294 300 298 302 303 298 292
169 182 213 245 253 238 235 228 190 67 12 356 355 6 356 321 295 272 261 262 265 264 259 284 299 297 300 299 290 298 308 305 297
186 195 236 252 254 233 218 202 194 62 19 34 33 31 28 20 0 320 303 290 260 255 263 257 258 266 283 285 290 286 291 293 287
212 229 247 250 265 264 232 151 128 70 40 37 38 31 24 11 356 346 336 325 317 300 250 262 262 264 267 273 283 283 277 273 270
Wind_Speed_850mb
47 40 25 40 56 74 71 65 61 52 47 43 54 59 48 38 34 32 25 27 31 25 23 27 31 24 21 24 32 31 36 34 35
41 45 50 36 42 56 67 66 68 57 46 41 51 60 52 43 40 36 29 25 27 28 24 22 25 27 21 24 31 29 33 30 29
39 41 37 37 44 61 62 54 47 53 55 45 48 56 57 52 43 40 37 29 31 30 25 24 25 27 24 28 29 31 32 33 33
37 38 41 36 36 46 47 52 28 24 39 54 52 55 60 57 51 43 37 36 36 35 31 29 28 26 28 31 32 27 27 26 34
31 21 21 15 19 27 41 33 36 27 10 39 51 45 57 55 52 49 44 41 43 37 37 35 33 28 28 31 29 29 23 24 30
47 43 33 24 24 21 21 38 21 35 46 29 38 37 46 50 52 54 51 48 46 46 41 37 39 36 32 28 34 28 26 23 22
43 47 46 42 40 31 20 18 30 37 43 54 50 31 42 48 43 48 50 54 50 54 48 46 46 43 40 40 38 40 35 32 31
46 53 54 46 47 43 35 32 24 22 25 34 43 30 30 48 43 36 40 53 52 47 49 52 48 49 48 46 45 48 45 43 41
53 52 56 52 48 41 44 42 28 25 20 20 22 44 41 38 21 31 45 42 48 44 40 44 50 52 51 48 48 49 49 50 50
58 59 55 46 45 44 41 35 37 37 33 29 21 18 17 23 34 33 26 28 46 37 38 44 49 53 53 53 49 46 48 48 51
57 52 51 43 39 36 35 36 30 30 28 27 27 25 23 22 18 21 26 20 30 38 40 36 37 42 51 55 55 52 51 50 52
52 45 41 39 34 28 27 24 26 22 20 19 22 23 21 17 15 14 14 12 14 25 29 32 42 49 51 59 57 52 51 51 52
50 42 34 37 31 26 20 18 14 16 16 12 11 12 12 14 11 9 8 5 1 4 9 12 19 25 24 26 33 38 44 45 49
45 41 32 25 21 16 14 9 9 11 11 12 11 10 11 10 8 7 2 2 2 3 4 3 5 8 11 22 27 31 37 44 53
39 30 25 17 15 13 11 11 16 16 14 12 16 20 20 19 18 15 12 10 6 1 6 6 5 3 3 13 14 14 21 30 41
25 23 21 15 10 8 4 6 7 9 11 10 10 13 18 24 25 21 20 19 16 11 7 10 15 17 20 19 19 17 18 17 18
19 11 7 6 9 10 7 4 6 6 7 7 5 4 6 11 18 20 21 20 20 18 16 14 17 21 25 29 28 26 27 28 30
22 15 9 8 9 11 8 5 4 1 7 9 8 6 5 5 8 14 20 21 22 20 16 21 23 22 26 31 35 31 33 35 36
20 14 10 10 8 7 7 5 3 1 6 11 14 15 14 12 8 10 15 21 26 32 35 33 29 27 31 35 32 34 34 38 38
15 12 13 9 7 6 5 3 4 5 11 16 18 18 18 19 21 22 22 23 27 32 31 42 54 56 52 45 47 45 44 43 42
Wind_Direction_850mb
178 183 163 196 192 198 199 203 208 211 214 211 202 204 210 211 215 211 218 201 204 208 207 202 202 208 204 198 205 219 214 214 210
180 167 184 179 183 188 191 197 207 212 221 211 206 206 209 213 216 213 205 205 203 194 193 194 211 226 229 211 208 215 221 217 219
144 140 145 155 160 168 170 179 198 213 224 222 213 214 213 212 218 217 209 200 202 208 207 219 232 236 241 233 211 220 225 230 227
153 128 130 138 142 162 175 181 175 188 227 226 225 220 218 221 221 226 221 214 214 222 227 238 236 238 247 238 214 213 220 222 224
129 112 154 160 158 164 193 205 230 237 202 218 222 229 232 223 228 225 228 229 222 228 230 234 236 236 237 233 226 210 209 224 222
98 102 106 131 120 145 174 180 165 235 242 238 214 218 232 234 233 228 233 232 228 231 229 233 240 239 234 233 234 229 222 222 235
106 100 100 100 93 98 133 176 212 230 236 230 235 262 246 232 230 239 235 234 234 235 238 239 243 248 248 246 244 237 239 235 237
97 102 99 99 98 98 110 129 170 190 204 208 222 223 222 224 260 252 239 235 229 232 236 241 248 249 248 249 246 244 247 245 247
106 108 103 106 101 107 94 94 105 125 173 186 211 179 209 203 227 209 252 252 224 228 234 238 239 242 248 248 248 249 250 253 256
122 110 106 103 97 93 93 94 90 93 101 124 141 171 206 229 217 220 216 235 224 243 246 244 241 240 241 242 245 251 255 253 255
120 114 111 106 103 105 109 102 104 98 105 115 123 122 112 112 148 208 233 234 229 245 260 256 250 251 252 249 244 242 244 246 252
123 122 117 113 119 121 122 128 129 137 132 128 131 124 121 118 115 121 148 177 207 246 260 252 260 258 256 249 246 248 251 254 253
130 132 132 127 132 132 148 149 177 182 161 158 144 132 132 137 146 147 140 132 147 290 286 286 272 258 275 280 269 256 256 259 261
140 136 143 150 152 154 141 165 214 228 215 222 216 206 207 205 198 189 174 104 65 352 336 275 314 296 264 277 280 270 273 267 262
138 139 150 170 176 186 197 225 246 257 268 274 270 260 251 247 248 249 244 243 258 322 326 292 317 4 334 346 348 330 292 277 272
150 153 156 170 194 196 239 263 276 262 269 305 302 263 250 245 245 249 259 263 262 255 262 318 308 297 297 298 304 318 323 321 306
158 171 189 214 227 235 231 290 307 314 306 319 348 317 260 255 248 244 249 254 266 273 276 273 278 286 294 300 298 302 303 298 292
169 182 213 245 253 238 235 228 190 67 12 356 355 6 356 321 295 272 261 262 265 264 259 284 299 297 300 299 290 298 308 305 297
186 195 236 252 254 233 218 202 194 62 19 34 33 31 28 20 0 320 303 290 260 255 263 257 258 266 283 285 290 286 291 293 287
212 229 247 250 265 264 232 151 128 70 40 37 38 31 24 11 356 346 336 325 317 300 250 262 262 264 267 273 283 283 277 273 270